Location: Bouillancy
(49.1149°N, 2.9308°E)
Time: 21:40:49
(UTC+00:00)

USA 290 - Pass Details

Date: 30 September 2020
Orbit: 400 x 414 km, 73.6° (Epoch: 09 October)

Event Time Altitude Azimuth Distance (km) Brightness Sun altitude
Rises 19:26:21 0° 343° (NNW) 2,344 6.6 -19.9°
Reaches altitude 10° 19:28:32 10° 354° (N) 1,481 5.3 -20.2°
Enters shadow 19:30:10 23° 16° (NNE) 937 4.0 -20.5°
